[[{"header":{"parameterUnit":"m.s-1","parameterCategory":1,"la1":30.2991,"la2":30.254,"lo1":-89.0895,"lo2":-89.0444,"dy":0.0017,"dx":0.0017,"nx":28,"ny":28,"refTime":"2024-08-21T21:00:00:Z","depth":0,"parameterNumber":2,"parameterNumberName":"U-component_of_WINDS"},"data":[0,0,0,0,0,0,0,0,0,0,0,0,0,0,0,0,0,0,0,0,0,0,0,0,0,0,0,0,0,0,0,0,0,0,0,0,0,0,0,0,0,0,0,0,0,0,0,0,0,0,0,0,0,0,0,0,0,0,0.2846,0.2847,0,0.299,0.2992,0.2993,0.307,0.307,0.307,0.307,0.322,0.3224,0.3228,0,0,0,0,0,0,0,0,0,0,0,0,0,0.2637,0.264,0.2846,0.2847,0.2849,0.299,0.2992,0.2994,0.307,0.307,0.307,0.307,0.3219,0.3224,0.3228,0,0,0,0,0,0,0,0,0,0,0,0,0,0.2749,0.2641,0.2845,0.2904,0.2911,0.299,0.2992,0.2994,0.307,0.307,0.307,0.307,0.3218,0.3223,0.3229,0.3261,0,0,0.3247,0.3249,0,0,0,0,0,0,0,0,0.2742,0.2757,0.2893,0.29,0.2908,0.3012,0.2974,0.3084,0.307,0.3009,0.307,0.307,0.3151,0.3162,0.3189,0.3268,0.3275,0.3247,0.3251,0.3253,0.3255,0,0,0,0,0,0,0,0.2735,0.2751,0.2903,0.2895,0.2904,0.2923,0.294,0.2995,0.3077,0.3015,0.302,0.3036,0.3155,0.3183,0.3193,0.3277,0.3247,0.3252,0.3256,0.3258,0.339,0.339,0,0,0,0,0,0,0.2717,0.2744,0.2898,0.2907,0.2824,0.2927,0.2945,0.2978,0.3077,0.3092,0.3036,0.3039,0.3173,0.3186,0.3199,0.3243,0.3253,0.3259,0.3262,0.339,0.339,0.339,0,0,0,0,0,0,0.2712,0.273,0.2893,0.2827,0.2849,0.293,0.2967,0.2981,0.301,0.3093,0.3109,0.305,0.3174,0.3191,0.3245,0.3249,0.3261,0.3267,0.339,0.339,0.339,0.3331,0,0,0,0,0,0,0.2706,0.2728,0.2741,0.2827,0.2852,0.2935,0.2967,0.2984,0.3019,0.3025,0.311,0.3125,0.3175,0.3236,0.3251,0.3257,0.3271,0.339,0.339,0.339,0.3333,0.3329,0.3325,0,0,0,0,0,0.2698,0.2719,0.2741,0.2759,0.287,0.2936,0.295,0.3008,0.3019,0.3033,0.3087,0.3122,0.3246,0.3241,0.3258,0.3267,0.339,0.339,0.339,0.3334,0.333,0.3326,0,0,0,0,0,0,0.2633,0.2732,0.2757,0.2806,0.2862,0.2948,0.2967,0.3001,0.3055,0.3058,0.3128,0.3147,0.3194,0.3236,0.3228,0.3303,0.3322,0.3325,0.3274,0.327,0.3266,0.3255,0.3276,0,0,0,0,0,0.2623,0.2668,0.2752,0.2788,0.2814,0.2885,0.2916,0.2956,0.3016,0.304,0.3098,0.3156,0.3209,0.3242,0.3294,0.3339,0.3359,0.3354,0.335,0.3346,0.3349,0.3375,0.3373,0.339,0.339,0.339,0,0,0.2606,0.2665,0.2689,0.2776,0.2824,0.2868,0.2905,0.2951,0.2985,0.3048,0.3102,0.3146,0.3216,0.3265,0.329,0.3302,0.3348,0.3346,0.3343,0.3347,0.3375,0.3373,0.3372,0.339,0.339,0.339,0,0,0.2596,0.2646,0.268,0.2727,0.2798,0.2846,0.2854,0.2935,0.2967,0.3022,0.307,0.3112,0.32,0.3248,0.3283,0.329,0.3325,0.3306,0.3286,0.3311,0.331,0.3309,0.3311,0.3311,0.3308,0.3307,0.3307,0,0.2565,0.2634,0.2694,0.2737,0.2773,0.2831,0.2867,0.2909,0.2994,0.3019,0.303,0.3142,0.3193,0.3254,0.3255,0.3282,0.3294,0.3296,0.3305,0.3305,0.3305,0.3308,0.3308,0.3305,0.3305,0.3305,0.3305,0,0.2592,0.2639,0.2658,0.2738,0.2777,0.2815,0.2881,0.2914,0.2949,0.2995,0.3051,0.3114,0.318,0.3198,0.3234,0.3264,0.3268,0.3291,0.3312,0.33,0.3303,0.3305,0.3301,0.3302,0.3302,0.3303,0,0,0.2545,0.2657,0.2663,0.2699,0.2782,0.2819,0.2861,0.2925,0.295,0.3007,0.3044,0.3117,0.3138,0.3179,0.322,0.3242,0.3243,0.3263,0.3266,0.3256,0.3279,0.3261,0.3261,0.3266,0.3267,0.3267,0.3273,0,0.2547,0.2623,0.2678,0.2733,0.2777,0.2833,0.2869,0.2923,0.2967,0.3011,0.3061,0.3111,0.3136,0.316,0.3184,0.3237,0.3248,0.3238,0.3301,0.3302,0.3281,0.3263,0.3244,0.3247,0.3275,0.3275,0.3276,0,0.2559,0.2613,0.2672,0.2749,0.2769,0.2801,0.2863,0.2904,0.2968,0.2998,0.3042,0.3085,0.3131,0.3147,0.3212,0.3203,0.3233,0.3262,0.3264,0.3272,0.3288,0.327,0.3249,0.3249,0.3279,0.3278,0.3278,0,0.2518,0.2605,0.2652,0.2681,0.2773,0.2793,0.2832,0.2896,0.293,0.2985,0.3008,0.3068,0.31,0.3146,0.3203,0.3209,0.3262,0.3283,0.3289,0.3287,0.3297,0.3295,0.328,0.3316,0.3316,0.3316,0.3316,0,0.2514,0.2548,0.2634,0.2663,0.2702,0.2765,0.2803,0.2847,0.2902,0.2941,0.2993,0.3028,0.3102,0.3146,0.3191,0.3238,0.3252,0.3278,0.329,0.3273,0.327,0.3293,0.3294,0.3316,0.3316,0.3316,0.3316,0,0.2475,0.2534,0.2588,0.267,0.2691,0.2717,0.2787,0.2817,0.2863,0.2911,0.2926,0.2999,0.3053,0.3115,0.3191,0.3221,0.3264,0.3281,0.3242,0.3249,0.3251,0.3249,0.3249,0.3252,0.3286,0.3286,0.3285,0,0.2468,0.2495,0.2579,0.2608,0.2645,0.2692,0.2727,0.279,0.2824,0.2897,0.2918,0.2976,0.3026,0.311,0.3171,0.3228,0.3247,0.3243,0.3256,0.3238,0.3246,0.3244,0.3246,0.3239,0.3238,0.3238,0.3237,0,0.2449,0.2477,0.2525,0.2583,0.2624,0.2673,0.2724,0.2745,0.2818,0.2854,0.291,0.2948,0.3024,0.3081,0.3146,0.3187,0.3224,0.3233,0.3237,0.322,0.3196,0.3208,0.3231,0.3232,0.3233,0.3233,0.3234,0.3234,0.2426,0.2452,0.2515,0.2567,0.2612,0.2658,0.269,0.274,0.2787,0.2853,0.2888,0.2943,0.3005,0.3096,0.3135,0.318,0.3192,0.3198,0.32,0.32,0.3195,0.3189,0.3192,0.3192,0.3192,0.3192,0.3193,0,0.2409,0.2452,0.2499,0.2569,0.2609,0.264,0.2698,0.273,0.2777,0.2832,0.2879,0.2943,0.2998,0.3062,0.3122,0.3144,0.3163,0.3158,0.3157,0.3165,0.3181,0.3171,0.3142,0.3142,0.3142,0.3142,0.3142,0.3142,0.2405,0.2451,0.2486,0.2555,0.2598,0.2651,0.2682,0.2725,0.2769,0.2837,0.2882,0.2924,0.2982,0.3046,0.3098,0.3116,0.3135,0.3124,0.3147,0.316,0.3164,0.3168,0.3159,0.3128,0.3128,0.3127,0.3127,0.3127]},{"header":{"parameterUnit":"m.s-1","parameterCategory":1,"la1":30.2991,"la2":30.254,"lo1":-89.0895,"lo2":-89.0444,"dy":0.0017,"dx":0.0017,"nx":28,"ny":28,"refTime":"2024-08-21T21:00:00:Z","depth":0,"parameterNumber":3,"parameterNumberName":"V-component_of_WINDS"},"data":[0,0,0,0,0,0,0,0,0,0,0,0,0,0,0,0,0,0,0,0,0,0,0,0,0,0,0,0,0,0,0,0,0,0,0,0,0,0,0,0,0,0,0,0,0,0,0,0,0,0,0,0,0,0,0,0,0,0,1.0981,1.098,0,1.0935,1.0935,1.0934,1.091,1.091,1.091,1.091,1.0863,1.0862,1.0861,0,0,0,0,0,0,0,0,0,0,0,0,0,1.1044,1.1043,1.0981,1.098,1.098,1.0936,1.0935,1.0934,1.091,1.091,1.091,1.091,1.0863,1.0862,1.086,0,0,0,0,0,0,0,0,0,0,0,0,0,1.101,1.1043,1.0981,1.0962,1.096,1.0936,1.0935,1.0934,1.091,1.091,1.091,1.091,1.0864,1.0862,1.086,1.0851,0,0,1.0855,1.0854,0,0,0,0,0,0,0,0,1.1012,1.1007,1.0966,1.0963,1.0961,1.0928,1.094,1.0906,1.091,1.0929,1.091,1.091,1.0885,1.0881,1.0873,1.0848,1.0846,1.0855,1.0853,1.0853,1.0852,0,0,0,0,0,0,0,1.1014,1.1009,1.0963,1.0965,1.0962,1.0956,1.0951,1.0934,1.0908,1.0927,1.0926,1.0921,1.0883,1.0875,1.0872,1.0846,1.0855,1.0853,1.0852,1.0851,1.0809,1.0809,0,0,0,0,0,0,1.102,1.1011,1.0964,1.0961,1.0987,1.0954,1.0949,1.0939,1.0908,1.0903,1.0921,1.092,1.0878,1.0874,1.087,1.0855,1.0853,1.0851,1.085,1.0809,1.0809,1.0809,0,0,0,0,0,0,1.1021,1.1016,1.0966,1.0986,1.0979,1.0953,1.0942,1.0938,1.0929,1.0903,1.0898,1.0916,1.0878,1.0872,1.0855,1.0853,1.085,1.0849,1.0809,1.0809,1.0809,1.0826,0,0,0,0,0,0,1.1023,1.1016,1.1013,1.0986,1.0978,1.0953,1.0942,1.0937,1.0926,1.0924,1.0898,1.0893,1.0877,1.0858,1.0853,1.0851,1.0847,1.0809,1.0809,1.0809,1.0826,1.0827,1.0828,0,0,0,0,0,1.1026,1.102,1.1013,1.1008,1.0973,1.0953,1.0948,1.093,1.0926,1.0922,1.0905,1.0894,1.0854,1.0856,1.0851,1.0848,1.0809,1.0809,1.0809,1.0825,1.0827,1.0828,0,0,0,0,0,0,1.1048,1.1016,1.1008,1.0994,1.0976,1.0949,1.0943,1.0932,1.0915,1.0914,1.0892,1.0886,1.0871,1.0857,1.0861,1.0836,1.083,1.0829,1.0845,1.0846,1.0847,1.085,1.0846,0,0,0,0,0,1.1051,1.1038,1.1011,1.1001,1.0992,1.0969,1.096,1.0947,1.0928,1.092,1.0902,1.0883,1.0866,1.0855,1.0838,1.0824,1.0817,1.0819,1.082,1.0821,1.082,1.0809,1.0809,1.0808,1.0808,1.0808,0,0,1.1058,1.1039,1.1032,1.1005,1.0989,1.0975,1.0963,1.0949,1.0937,1.0918,1.09,1.0886,1.0863,1.0847,1.0839,1.0835,1.0818,1.0821,1.0821,1.082,1.0809,1.0809,1.0809,1.0808,1.0808,1.0808,0,0,1.1063,1.1048,1.1037,1.1021,1.0998,1.0983,1.098,1.0954,1.0944,1.0925,1.091,1.0896,1.0867,1.0851,1.084,1.0836,1.0825,1.0831,1.0836,1.0826,1.0827,1.0826,1.0824,1.0823,1.0831,1.0831,1.0831,0,1.1074,1.1052,1.1033,1.1019,1.1006,1.0987,1.0976,1.0962,1.0934,1.0926,1.0923,1.0885,1.0869,1.0848,1.0847,1.0838,1.0834,1.0834,1.0828,1.0828,1.0828,1.0825,1.0824,1.0832,1.0831,1.0831,1.0831,0,1.1066,1.1051,1.1045,1.1018,1.1005,1.0993,1.0971,1.096,1.0948,1.0932,1.0913,1.0893,1.087,1.0865,1.0853,1.0841,1.0839,1.0833,1.0827,1.0829,1.0826,1.0825,1.0833,1.0832,1.0832,1.0832,0,0,1.1085,1.1046,1.1044,1.1031,1.1003,1.0991,1.0977,1.0955,1.0945,1.0926,1.0913,1.0889,1.0881,1.0868,1.0854,1.0846,1.0842,1.084,1.0839,1.084,1.0826,1.0831,1.083,1.0835,1.0835,1.0835,1.0828,0,1.1084,1.1058,1.1039,1.102,1.1004,1.0986,1.0973,1.0954,1.0939,1.0923,1.0906,1.0889,1.0881,1.0873,1.0863,1.0845,1.0839,1.0845,1.0821,1.0821,1.0827,1.0829,1.0834,1.0829,1.0827,1.0826,1.0826,0,1.1081,1.1062,1.1041,1.1013,1.1006,1.0995,1.0972,1.0958,1.0936,1.0925,1.0909,1.0895,1.0878,1.0874,1.0849,1.0853,1.0842,1.0831,1.0831,1.0827,1.0823,1.0825,1.0827,1.0826,1.0824,1.0825,1.0825,0,1.1094,1.1064,1.1047,1.1036,1.1004,1.0996,1.0983,1.096,1.0947,1.0928,1.0919,1.0898,1.0886,1.0869,1.0849,1.0848,1.0825,1.082,1.0815,1.0815,1.0811,1.0811,1.0811,1.0805,1.0805,1.0805,1.0805,0,1.1096,1.1083,1.1052,1.1042,1.1027,1.1005,1.099,1.0975,1.0955,1.094,1.0923,1.0909,1.0884,1.0867,1.0851,1.0832,1.0827,1.0817,1.0813,1.0818,1.0819,1.081,1.081,1.0805,1.0805,1.0805,1.0805,0,1.1109,1.1088,1.1067,1.1038,1.103,1.102,1.0995,1.0983,1.0967,1.0948,1.0942,1.0916,1.0895,1.0874,1.0845,1.0834,1.0816,1.081,1.0823,1.0821,1.0817,1.0817,1.081,1.0807,1.0804,1.0804,1.0804,0,1.111,1.11,1.1069,1.1058,1.1044,1.1027,1.1014,1.0991,1.0978,1.0951,1.0942,1.092,1.0901,1.0868,1.0846,1.0824,1.0817,1.0816,1.0814,1.0819,1.0816,1.0816,1.0814,1.0817,1.0817,1.0817,1.0817,0,1.1115,1.1105,1.1087,1.1064,1.1049,1.103,1.1011,1.1003,1.0976,1.0962,1.0941,1.0926,1.0896,1.0874,1.0849,1.0833,1.082,1.0818,1.0816,1.0821,1.0828,1.0823,1.0824,1.0818,1.0818,1.0818,1.0818,1.0818,1.1122,1.1111,1.1087,1.1067,1.105,1.1032,1.1019,1.1,1.0982,1.0956,1.0944,1.0922,1.0898,1.0863,1.0848,1.0829,1.0826,1.0823,1.0822,1.0821,1.0822,1.0832,1.0825,1.0825,1.0825,1.0825,1.0825,0,1.1124,1.1108,1.1089,1.1063,1.1046,1.1036,1.1013,1.1,1.0981,1.096,1.0941,1.0915,1.0893,1.0869,1.0845,1.0835,1.0828,1.0829,1.0829,1.0825,1.0827,1.0831,1.0835,1.0835,1.0835,1.0835,1.0835,1.0835,1.1124,1.1105,1.1092,1.1063,1.1047,1.1025,1.1013,1.0995,1.0978,1.095,1.0932,1.0916,1.0893,1.0867,1.0846,1.0839,1.0831,1.0833,1.0825,1.0826,1.0826,1.0825,1.0829,1.0832,1.0832,1.0825,1.0825,1.0825]}]]